Location: Cella
(44.7333°N, 10.5667°E)
Time: 15:13:17
(UTC+00:00)

BREEZE-M DEB (TANK) - Pass Details

Date: 03 March 2021
Orbit: 308 x 15403 km, 49.5° (Epoch: 11 April)

Event Time Altitude Azimuth Distance (km) Brightness Sun altitude
Rises 19:45:01 0° 293° (WNW) 2,253 6.7 -28.2°
Reaches altitude 10° 19:46:22 10° 298° (WNW) 1,610 5.6 -28.5°
Enters shadow 19:48:25 44° 325° (NW) 884 3.6 -28.8°
